Date String (YYYY-MM-DD hh:mm:ss) UTC,Instrument flags,absolute air pressure of the measurement (hPa),sample flow rate (lpm),inlet stack bypass flow (lpm),air temperature of the measurement (°C),ambient temperature measured by the external sensor (°C),aerosol sample conditioner tube jacket temperature (°C),OPC LED temperature (°C),internal box temperature (°C),relative humidity of the measurement (%),span deviation,mass concentration of particles derived from Lorenz-Mie calculation of OPC scattering (μg/m³),mass concentration of particles derived from Lorenz-Mie calculation of OPC scattering (μg/m³),mass concentration of particles derived from Lorenz-Mie calculation of OPC scattering (μg/m³)
DateTimeUTC,F1_M11,P_M11,Q1_M11,Q2_M11,T1_M11,T2_M11,T3_M11,T4_M11,T5_M11,U1_M11,ZSPAN_M11,X0_M11,X2_M11,X1_M11
2023-06-17 22:00:00,SystemResetWarning,0828.4,5.00,000.00,029.9,028.4,000.0,038.3,031.6,19.0,0000.0,0002.78,0001.95,0001.61
2023-06-17 22:01:00,SystemResetWarning,0828.4,5.00,000.00,029.9,026.6,000.0,038.3,031.5,18.9,0000.0,0002.72,0001.94,0001.61
2023-06-17 22:02:00,SystemResetWarning,0828.4,5.00,000.00,029.9,025.2,000.0,038.2,031.4,17.9,0000.0,0002.72,0001.94,0001.60
2023-06-17 22:03:00,SystemResetWarning,0828.4,5.01,000.00,029.8,025.4,000.0,038.2,031.2,17.4,0000.0,0002.78,0001.94,0001.60
2023-06-17 22:04:00,SystemResetWarning,0828.4,5.01,000.00,029.7,025.7,000.0,038.2,031.0,17.9,0000.0,0002.83,0001.94,0001.59
2023-06-17 22:05:00,SystemResetWarning,0828.4,5.00,000.00,029.7,026.2,000.0,038.2,031.0,18.5,0000.0,0003.02,0002.00,0001.58
2023-06-17 22:06:00,SystemResetWarning,0828.5,5.01,000.00,029.7,026.6,000.0,038.2,031.1,18.1,0000.0,0002.90,0001.95,0001.56
2023-06-17 22:07:00,SystemResetWarning,0828.5,4.99,000.00,029.7,026.9,000.0,038.2,031.1,17.1,0000.0,0002.78,0001.88,0001.52
2023-06-17 22:08:00,SystemResetWarning,0828.5,4.99,000.00,029.7,027.2,000.0,038.2,031.2,16.9,0000.0,0002.67,0001.83,0001.49
2023-06-17 22:09:00,SystemResetWarning,0828.4,5.02,000.00,029.7,027.5,000.0,038.2,031.2,17.5,0000.0,0002.60,0001.76,0001.43
2023-06-17 22:10:00,SystemResetWarning,0828.4,5.00,000.00,029.7,027.7,000.0,038.2,031.3,17.1,0000.0,0002.47,0001.69,0001.38
2023-06-17 22:11:00,SystemResetWarning,0828.4,4.99,000.00,029.7,027.9,000.0,038.2,031.3,17.5,0000.0,0002.42,0001.64,0001.33
2023-06-17 22:12:00,SystemResetWarning,0828.4,5.00,000.00,029.7,028.0,000.0,038.2,031.3,16.7,0000.0,0002.42,0001.61,0001.29
2023-06-17 22:13:00,SystemResetWarning,0828.4,5.00,000.00,029.8,028.2,000.0,038.2,031.4,16.5,0000.0,0002.53,0001.61,0001.26
2023-06-17 22:14:00,SystemResetWarning,0828.4,5.01,000.00,029.8,028.3,000.0,038.2,031.4,15.9,0000.0,0002.42,0001.56,0001.22
2023-06-17 22:15:00,SystemResetWarning,0828.4,5.00,000.00,029.8,028.3,000.0,038.3,031.5,15.6,0000.0,0002.35,0001.51,0001.18
2023-06-17 22:16:00,SystemResetWarning,0828.3,5.00,000.00,029.9,028.4,000.0,038.3,031.5,16.8,0000.0,0002.18,0001.44,0001.17
2023-06-17 22:17:00,SystemResetWarning,0828.3,4.99,000.00,029.9,028.4,000.0,038.3,031.5,15.5,0000.0,0002.32,0001.43,0001.14
2023-06-17 22:18:00,SystemResetWarning,0828.2,4.98,000.00,029.9,026.8,000.0,038.3,031.4,15.7,0000.0,0002.37,0001.44,0001.13
2023-06-17 22:19:00,SystemResetWarning,0828.2,5.00,000.00,029.8,025.3,000.0,038.2,031.2,15.2,0000.0,0002.43,0001.44,0001.12
2023-06-17 22:20:00,SystemResetWarning,0828.2,5.01,000.00,029.8,025.5,000.0,038.2,031.1,14.6,0000.0,0002.73,0001.51,0001.13
2023-06-17 22:21:00,SystemResetWarning,0828.1,5.01,000.00,029.7,025.8,000.0,038.2,030.9,15.0,0000.0,0002.80,0001.53,0001.13
2023-06-17 22:22:00,SystemResetWarning,0828.1,5.00,000.00,029.6,026.2,000.0,038.2,030.9,15.5,0000.0,0003.04,0001.52,0001.13
2023-06-17 22:23:00,SystemResetWarning,0828.1,5.00,000.00,029.6,026.6,000.0,038.2,031.0,17.0,0000.0,0004.13,0001.51,0001.12
2023-06-17 22:24:00,SystemResetWarning,0828.1,5.00,000.00,029.6,026.9,000.0,038.2,031.0,17.2,0000.0,0004.17,0001.47,0001.11
2023-06-17 22:25:00,SystemResetWarning,0828.0,5.00,000.00,029.6,027.2,000.0,038.2,031.1,15.2,0000.0,0004.81,0001.50,0001.10
2023-06-17 22:26:00,SystemResetWarning,0828.1,5.00,000.00,029.7,027.5,000.0,038.2,031.1,15.8,0000.0,0004.78,0001.49,0001.09
2023-06-17 22:27:00,SystemResetWarning,0828.1,5.00,000.00,029.7,027.7,000.0,038.2,031.2,16.3,0000.0,0004.71,0001.49,0001.08
2023-06-17 22:28:00,SystemResetWarning,0828.1,5.00,000.00,029.7,027.9,000.0,038.2,031.2,15.5,0000.0,0004.53,0001.46,0001.09
2023-06-17 22:29:00,SystemResetWarning,0828.0,5.00,000.00,029.7,028.0,000.0,038.2,031.3,15.1,0000.0,0004.60,0001.49,0001.09
2023-06-17 22:30:00,SystemResetWarning,0827.8,5.00,000.00,029.7,028.1,000.0,038.2,031.4,15.1,0000.0,0004.67,0001.49,0001.11
2023-06-17 22:31:00,SystemResetWarning,0827.9,4.99,000.00,029.8,028.2,000.0,038.2,031.4,15.6,0000.0,0005.38,0001.47,0001.12
2023-06-17 22:32:00,SystemResetWarning,0827.9,5.00,000.00,029.8,028.3,000.0,038.3,031.4,15.3,0000.0,0007.58,0001.52,0001.14
2023-06-17 22:33:00,SystemResetWarning,0827.8,5.00,000.00,029.8,028.3,000.0,038.3,031.4,15.9,0000.0,0007.42,0001.56,0001.15
2023-06-17 22:34:00,SystemResetWarning,0827.8,4.99,000.00,029.9,026.7,000.0,038.2,031.4,15.8,0000.0,0006.52,0001.58,0001.17
2023-06-17 22:35:00,SystemResetWarning,0827.8,5.01,000.00,029.8,025.3,000.0,038.2,031.3,15.7,0000.0,0006.44,0001.60,0001.19
2023-06-17 22:36:00,SystemResetWarning,0827.9,5.01,000.00,029.8,025.4,000.0,038.1,031.2,15.3,0000.0,0005.91,0001.61,0001.22
2023-06-17 22:37:00,SystemResetWarning,0827.9,5.00,000.00,029.7,025.8,000.0,038.2,031.0,14.7,0000.0,0006.12,0001.68,0001.25
2023-06-17 22:38:00,SystemResetWarning,0827.9,5.00,000.00,029.6,026.2,000.0,038.2,031.0,15.5,0000.0,0006.37,0001.71,0001.26
2023-06-17 22:39:00,SystemResetWarning,0828.0,4.98,000.00,029.6,026.5,000.0,038.2,031.0,14.2,0000.0,0006.88,0001.77,0001.26
2023-06-17 22:40:00,SystemResetWarning,0827.9,5.00,000.00,029.6,026.9,000.0,038.2,031.1,15.0,0000.0,0006.87,0001.78,0001.28
2023-06-17 22:41:00,SystemResetWarning,0827.8,5.02,000.00,029.6,027.2,000.0,038.2,031.1,16.0,0000.0,0006.81,0001.80,0001.29
2023-06-17 22:42:00,SystemResetWarning,0827.9,5.00,000.00,029.6,027.5,000.0,038.2,031.1,15.3,0000.0,0006.28,0001.78,0001.29
2023-06-17 22:43:00,SystemResetWarning,0827.9,4.99,000.00,029.7,027.7,000.0,038.2,031.2,16.5,0000.0,0003.67,0001.76,0001.30
2023-06-17 22:44:00,SystemResetWarning,0827.9,4.99,000.00,029.7,027.8,000.0,038.2,031.2,16.6,0000.0,0003.41,0001.76,0001.30
2023-06-17 22:45:00,SystemResetWarning,0828.0,5.00,000.00,029.7,028.0,000.0,038.2,031.2,15.7,0000.0,0003.46,0001.77,0001.31
2023-06-17 22:46:00,SystemResetWarning,0828.0,5.00,000.00,029.7,028.1,000.0,038.2,031.3,15.1,0000.0,0003.55,0001.78,0001.32
2023-06-17 22:47:00,SystemResetWarning,0828.0,5.00,000.00,029.8,028.2,000.0,038.2,031.4,16.3,0000.0,0003.53,0001.80,0001.34
2023-06-17 22:48:00,SystemResetWarning,0828.0,5.00,000.00,029.8,028.3,000.0,038.2,031.4,14.7,0000.0,0003.52,0001.80,0001.35
2023-06-17 22:49:00,SystemResetWarning,0828.0,5.00,000.00,029.8,028.4,000.0,038.3,031.4,15.8,0000.0,0003.52,0001.81,0001.36
2023-06-17 22:50:00,SystemResetWarning,0828.1,5.00,000.00,029.9,028.4,000.0,038.3,031.5,15.1,0000.0,0003.06,0001.80,0001.37
2023-06-17 22:51:00,SystemResetWarning,0827.9,4.99,000.00,029.9,026.9,000.0,038.2,031.4,15.4,0000.0,0003.11,0001.82,0001.38
2023-06-17 22:52:00,SystemResetWarning,0827.9,5.01,000.00,029.8,025.4,000.0,038.2,031.2,15.0,0000.0,0003.25,0001.82,0001.39
2023-06-17 22:53:00,SystemResetWarning,0827.9,5.01,000.00,029.8,025.5,000.0,038.2,031.1,15.5,0000.0,0003.41,0001.85,0001.39
2023-06-17 22:54:00,SystemResetWarning,0827.8,5.00,000.00,029.7,025.8,000.0,038.2,031.0,15.6,0000.0,0003.50,0001.87,0001.39
2023-06-17 22:55:00,SystemResetWarning,0827.9,5.01,000.00,029.6,026.2,000.0,038.2,031.0,17.1,0000.0,0003.55,0001.87,0001.40
2023-06-17 22:56:00,SystemResetWarning,0828.1,5.00,000.00,029.6,026.6,000.0,038.2,031.0,18.2,0000.0,0003.88,0001.91,0001.41
2023-06-17 22:57:00,SystemResetWarning,0828.0,4.99,000.00,029.6,026.9,000.0,038.2,031.1,19.5,0000.0,0004.29,0001.95,0001.42
2023-06-17 22:58:00,SystemResetWarning,0828.1,5.00,000.00,029.6,027.2,000.0,038.2,031.1,18.6,0000.0,0004.24,0001.95,0001.41
2023-06-17 22:59:00,SystemResetWarning,0828.1,5.00,000.00,029.7,027.5,000.0,038.2,031.2,19.1,0000.0,0004.38,0001.98,0001.42
